Location: Newark
(33.6439°N, 114.9881°W)
Time: 23:12:02
(UTC+00:00)

Tiros 1 - Pass Details

Date: 28 July 2019
Orbit: 631 x 664 km, 48.4° (Epoch: 25 August)

Event Time Altitude Azimuth Distance (km) Brightness Sun altitude
Rises 15:14:20 0° 201° (SSW) 2,940 10.3 28.3°
Reaches altitude 10° 15:16:55 10° 190° (S) 2,040 9.7 28.9°
Maximum altitude 15:20:54 27° 132° (SE) 1,238 9.5 29.7°
Drops below altitude 10° 15:24:55 10° 74° (ENE) 2,066 11.2 30.5°
Sets 15:27:32 0° 63° (ENE) 2,985 11.5 31.1°
